Location: Unspecified
(0.0000°N, 0.0000°E)
Time: 01:29:06
(UTC+00:00)

Explorer 11/Cluster Stage 4 - Pass Details

Date: 23 November 2019
Orbit: 467 x 1259 km, 28.8° (Epoch: 11 December)

Event Time Altitude Azimuth Distance (km) Brightness Sun altitude
Rises 15:27:58 0° 276° (W) 2,481 10.0 32.2°
Reaches altitude 10° 15:31:11 10° 307° (NW) 1,616 8.7 31.4°
Maximum altitude 15:32:47 12° 334° (NNW) 1,492 8.2 31.1°
Drops below altitude 10° 15:34:26 10° 0° (N) 1,668 8.1 30.7°
Sets 15:37:54 0° 31° (NNE) 2,656 8.9 29.9°
